Skip Page Navigation
NASA JPL Caltech
NASA Logo - Jet Propulsion Laboratory + View the NASA Portal
+ Near-Earth Object (NEO) Program
Search JPL
JPL Home Earth Solar System Stars & Galaxies Technology
JPL Solar System Dynamics
BODIES ORBITS EPHEMERIDES TOOLS PHYSICAL DATA DISCOVERY FAQ SITE MAP
JPL Small-Body Database Browser
Search: [ help ]  
(2005 GZ212)
Classification: Main-belt Asteroid          SPK-ID: 3308479
Ephemeris | Orbit Diagram | Orbital Elements | Physical Parameters ]

[ hide orbit diagram ]
Orbit Diagram
Note: Make sure you have Java enabled on your browser to see the applet. This applet is provided as a 3D orbit visualization tool. The applet was implemented using 2-body methods, and hence should not be used for determining accurate long-term trajectories (over several years or decades) or planetary encounter circumstances. For accurate long-term ephemerides, please instead use our Horizons system.
Orbit Viewer

Additional Notes: the orbits shown in the applet are color coded. The planets are white lines, and the asteroid/comet is a blue line. The bright white line indicates the portion of the orbit that is above the ecliptic plane, and the darker portion is below the ecliptic plane. Likewise for the asteroid/comet orbit, the light blue indicates the portion above the ecliptic plane, and the dark blue the portion below the ecliptic plane.

Orbit Viewer applet originally written and kindly provided by Osamu Ajiki (AstroArts), and further modified by Ron Baalke (JPL).


Orbital Elements at Epoch 2456400.5 (2013-Apr-18.0) TDB
Reference: MPO182737 (heliocentric ecliptic J2000)
 Element Value Uncertainty (1-sigma)   Units 
e 0.1921179 n/a  
a 3.0846514 n/a AU
q 2.4920347 n/a AU
i 3.57124 n/a deg
node 107.21392 n/a deg
peri 80.51139 n/a deg
M 176.25214 n/a deg
tp 2455431.6881084
(2010-Aug-23.18810840)
n/a JED
period 1978.8257945
5.42
n/a
n/a
d
yr
n 0.18192607 n/a deg/d
Q 3.6772681 n/a AU
  Orbit Determination Parameters
   # obs. used (total)      31  
   first obs. used      2005-??-??  
   last obs. used      2010-04-30  
   # oppositions      2  
   planetary ephem.      DE403  
   condition code      4  
   fit RMS      0.48  
   data source      MPC:mpu  
   producer      MPCADO  

Additional Information
 T_jup = 3.195 

Ephemeris | Orbit Diagram | Orbital Elements | Physical Parameters ]

Physical Parameter Table
Parameter Symbol Value Units Sigma Reference Notes
absolute magnitude H 17.7 mag n/a MPO182737  

Alternate Designations
 2005 GZ212 = 2010 HO86 
Ephemeris | Orbit Diagram | Orbital Elements | Physical Parameters ]
ABOUT SSD CREDITS/AWARDS PRIVACY/COPYRIGHT GLOSSARY LINKS
FirstGov 2013-May-20 04:44 UT
(server date/time)  
NASA Home Page
Site Manager:   Donald K. Yeomans
Webmaster  Alan B. Chamberlin